AMAZONAS NEXUS (55508 NORAD) Tracking and Keplerian Element Data

This shows tracking and keplerian element data for the satellite.

Feedback or suggestion? Click here.




ElementValue
Catalog55508
NameAMAZONAS NEXUS
Epoch Orbit84
Epoch Day124.2
Epoch Year2023
RAAN343.372
Inclination1.839
Eccentricity0.2596139
Argument of Perigee189.529
Mean Anonmoly47.165
Mean Motion0.92051231
Decay Rate-1.23E-06
L11 55508U 23017A 23124.20000000 -.00000123 00000+0 00000+0 0 9995
L22 55508 1.8390 343.3720 2596139 189.5290 47.1650 0.92051231 845



Live tracking and technical data element details for AMAZONAS NEXUS (NORAD 55508). AMAZONAS NEXUS can be tracked NOW for your location showing map with azimuth and elevation plus other details from your city location.







IsCatalogInMostPopularTable: catalog: 55508, numindb: -1

Insert: records affected: 1


GetName: 55508 AMAZONAS NEXUS

Hit Count: inserted at: Sun, 28 May 2023 06:04:22 GMT